Location: *
(49.7115°N, 15.0136°E)
Time: 23:57:08
(UTC+00:00)

STARLINK-31 - Pass Details

Date: 27 February 2020
Orbit: 529 x 530 km, 53.0° (Epoch: 09 April)

Event Time Altitude Azimuth Distance (km) Brightness Sun altitude
Rises 17:25:38 0° 270° (W) 2,667 9.6 -8.4°
Reaches altitude 10° 17:27:53 10° 275° (W) 1,778 7.9 -8.8°
Maximum altitude 17:31:50 54° 353° (N) 649 4.0 -9.4°
Enters shadow 17:35:22 13° 70° (ENE) 1,611 5.4 -10.0°
